Weather in Gdov

Russia / Pskov Oblast     58°44′39″N   27°49′10″E
temp.,
°C
wind,
m/s
gust,
m/s
humid.,
%
clouds,
%
prec.,
mm/h
press.,
hPa
HPBL,
m
11 april, sun
sun1100:00−1sw48813 0.0 1019130
03:00−1ssw47845 0.0 1021118
06:00−1s48835 0.0 1022113
09:000ssw467414 0.0 1024154
12:00+2ssw24627 0.0 1025264
15:00+4sw1355100 0.0 1026396
18:00+4ne035768 0.0 1026246
21:00+4ese3784100 0.0 1026147
12 april, mon
mon1200:00+5se5989100 0.2 1025178
03:00+5se599451 0.4 1024154
06:00+5sse5128994 0.0 1023168
09:00+6sse71576100 0.0 1023312
12:00+8s71467100 0.0 1023389
15:00+10sse71461100 0.0 1022482
18:00+9sse51161100 0.0 1020613
21:00+7sse51071100 0.0 1020169
13 april, tue
tue1300:00+6sse488099 0.0 1019120
03:00+5s4985100 0.1 1019185
06:00+5s4888100 0.2 1018136
09:00+5s4891100 0.3 1019167
12:00+3sw3599100 0.8 102084
15:00+2w3697100 1.7 1021113
18:00+3s2296100 0.7 102257
21:00+2ssw359187 0.7 1022107
14 april, wed
wed1400:00+1w3783100 0.0 1023104
03:000nw259398 0.0 102380
06:000nw2492100 0.0 102478
09:00+1nnw2485100 0.0 1024163
12:00+3nnw3577100 0.0 1025366
15:00+3n4667100 0.0 1025411
18:00+3n4761100 0.0 1025321
21:00+1n3674100 0.0 1026108
15 april, thu
thu1500:000n3682100 0.0 1027102
03:00−1n3685100 0.0 102790
06:00−1nne358760 0.0 102772
09:00+2n36725 0.0 1028262
12:00+4nnw47590 0.0 1028515
15:00+5n58550 0.0 1028565
18:00+5n59620 0.0 1029507
21:00+2n48780 0.0 1031152